Volver al catálogo

STARLINK-37456

ActivoComunicacionesSSO
NORAD 69300·PAYLOAD·🇺🇸 United States

Lanzado May 30, 2026 desde Vandenberg Space Force Base

Loading…

Próximos Pases (próximas 24 horas)

TLE

ActualizadoSource: CelesTrak SupGP

Época: Sep 15, 2026, 03:55 UTC

1 69300C 26119E   26258.16368056 -.00051942  00000+0 -16125-2 0  2582
2 69300  97.2824 282.9354 0001097  95.0142 237.2184 15.33463503    14

Sigue STARLINK-37456 en tiempo real con AllMySat

Download on the App Store